Simultaneous Nadir Overpasses (SNOs) Predictions

Prediction of SNOs between GOES-16 and METOP-C Satellite Orbit:

Table of predicted SNOs for the next 14.0 days since TLE Epoch: 1/29/2023
Index Date Time (GOES-16) GOES-16 Lat,Lon METOP-C Lat,Lon Distance(km) Time Diff (sec)
1 01/31/2023 14:28:26 0.00, -75.21 -0.08, -74.81 45.07 80
2 02/02/2023 02:50:09 -0.01, -75.20 -0.96, -79.41 480.04 80
3 02/03/2023 02:26:50 -0.00, -75.21 0.17, -74.42 89.47 80
4 02/04/2023 14:48:21 0.01, -75.23 0.86, -78.98 426.84 80
5 02/05/2023 14:25:03 0.02, -75.25 -0.27, -73.99 143.37 80
6 02/07/2023 02:46:45 -0.03, -75.25 -0.76, -78.59 380.16 80
7 02/08/2023 02:23:26 -0.03, -75.27 0.32, -73.59 190.39 80
8 02/09/2023 14:42:18 0.03, -75.31 0.65, -78.16 324.86 80
9 02/10/2023 14:21:39 0.03, -75.33 -0.43, -73.16 246.09 80
